TimeMDT,TemperatureF,Dew PointF,Humidity,Sea Level PressureIn,VisibilityMPH,Wind Direction,Wind SpeedMPH,Gust SpeedMPH,PrecipitationIn,Events,Conditions,WindDirDegrees,DateUTC
12:53 AM,71.1,59.0,66,29.79,10.0,West,10.4,-,N/A,,Clear,280,2013-07-07 06:53:00
1:53 AM,71.1,59.0,66,29.80,10.0,South,4.6,-,N/A,,Clear,170,2013-07-07 07:53:00
2:53 AM,71.1,57.9,63,29.79,10.0,SW,6.9,-,N/A,,Clear,220,2013-07-07 08:53:00
3:53 AM,71.1,57.9,63,29.79,10.0,WSW,5.8,-,N/A,,Mostly Cloudy,250,2013-07-07 09:53:00
4:53 AM,68.0,57.9,70,29.78,10.0,West,6.9,-,N/A,,Clear,260,2013-07-07 10:53:00
5:53 AM,68.0,57.9,70,29.79,10.0,West,3.5,-,N/A,,Clear,280,2013-07-07 11:53:00
6:53 AM,68.0,57.9,70,29.84,10.0,South,4.6,-,N/A,,Clear,180,2013-07-07 12:53:00
7:53 AM,73.0,57.0,57,29.86,10.0,Calm,Calm,-,N/A,,Clear,0,2013-07-07 13:53:00
8:53 AM,79.0,55.0,44,29.85,10.0,Calm,Calm,-,N/A,,Clear,0,2013-07-07 14:53:00
9:53 AM,82.9,57.0,41,29.83,10.0,NNE,5.8,-,N/A,,Clear,20,2013-07-07 15:53:00
10:53 AM,84.9,57.9,40,29.82,10.0,Variable,5.8,-,N/A,,Clear,0,2013-07-07 16:53:00
11:53 AM,88.0,55.9,34,29.83,10.0,Calm,Calm,-,N/A,,Clear,0,2013-07-07 17:53:00
12:53 PM,93.0,54.0,27,29.81,10.0,North,8.1,-,N/A,,Clear,10,2013-07-07 18:53:00
1:53 PM,96.1,52.0,22,29.77,10.0,NNE,4.6,-,N/A,,Clear,30,2013-07-07 19:53:00
2:53 PM,95.0,51.1,22,29.75,10.0,ENE,8.1,-,N/A,,Clear,70,2013-07-07 20:53:00
3:53 PM,95.0,53.1,24,29.75,10.0,SE,16.1,-,N/A,,Clear,130,2013-07-07 21:53:00
4:53 PM,93.0,52.0,25,29.75,10.0,SSE,19.6,-,N/A,,Clear,160,2013-07-07 22:53:00
5:53 PM,93.0,51.1,24,29.74,10.0,South,15.0,-,N/A,,Clear,190,2013-07-07 23:53:00
6:53 PM,91.0,54.0,28,29.76,10.0,South,12.7,-,N/A,,Clear,180,2013-07-08 00:53:00
7:53 PM,84.0,53.1,34,29.82,10.0,NNW,19.6,33.4,N/A,,Clear,330,2013-07-08 01:53:00
8:07 PM,80.6,55.4,42,30.03,10.0,North,25.3,32.2,N/A,,Clear,350,2013-07-08 02:07:00
8:53 PM,80.1,53.1,39,29.84,10.0,North,15.0,-,N/A,,Clear,10,2013-07-08 02:53:00
9:53 PM,79.0,53.1,40,29.88,10.0,WNW,13.8,-,N/A,,Clear,300,2013-07-08 03:53:00
10:00 PM,78.8,53.6,42,30.08,10.0,North,12.7,-,N/A,,Clear,350,2013-07-08 04:00:00
10:53 PM,77.0,55.9,48,29.88,10.0,NW,4.6,-,N/A,,Scattered Clouds,310,2013-07-08 04:53:00
11:53 PM,78.1,54.0,43,29.85,10.0,ESE,13.8,-,N/A,,Mostly Cloudy,120,2013-07-08 05:53:00